Location: Davayat
(45.9471°N, 3.1105°E)
Time: 18:15:31
(UTC+00:00)

Cosmos 1782 - Pass Details

Date: 01 December 2020
Orbit: 537 x 550 km, 82.5° (Epoch: 17 January)

Event Time Altitude Azimuth Distance (km) Brightness Sun altitude
Rises 17:55:16 0° 200° (SSW) 2,685 6.8 -18.7°
Reaches altitude 10° 17:57:28 10° 206° (SSW) 1,801 5.9 -19.1°
Maximum altitude 18:01:19 50° 282° (WNW) 701 3.7 -19.7°
Drops below altitude 10° 18:05:13 10° 359° (N) 1,824 5.4 -20.4°
Enters shadow 18:05:40 - 0° (N) 2,003 5.6 -20.5°
